Terminal Aerodrome Forecast
Issued by NWS

Home | Current Version | Previous Version | Text Only | Print | Product List | Glossary On
Versions: 1 2 3 4 5 6 7 8 9 10 11 12
000
FTUS45 KRIW 292300
TAFCOD
TAF
KCOD 292332Z 3000/3024 13007KT P6SM VCSH FEW080 SCT100
     FM300400 22007KT P6SM SCT110
     FM301200 23012G18KT P6SM VCSH SCT080 BKN110
     FM301800 VRB12G18KT P6SM VCTS SCT070CB BKN110
      AMD LTD TO CLD VIS AND WIND=

USA.gov is the U.S. government's official web portal to all federal, state and local government web resources and services.